Terug naar catalogus

GEESAT 4-06

ActiefCommunicatieLEO
NORAD 65124·PAYLOAD·🇨🇳 China

Gelanceerd Aug 8, 2025 vanaf Yellow Sea Launch Area

Loading…

Volgende Passages (komende 24 uur)

TLE

VersSource: Space-Track

Epoch: Sep 14, 2026, 21:26 UTC

1 65124U 25170F   26257.89362884  .00001218  00000-0  17081-3 0  9995
2 65124  49.9835 117.9311 0018676  25.9088 334.2781 14.84257842 59750

Volg GEESAT 4-06 in realtime met AllMySat

Download on the App Store